Tracking 19854 objects as of 22-Sep-2019
HD Live streaming from Space Station
objects crossing your sky now

RADCAL

Track RADCAL now!
10-day predictions
RADCAL is classified as:


NORAD ID: 22698
Int'l Code: 1993-041A
Perigee: 758.1 km
Apogee: 883.9 km
Inclination: 89.6 °
Period: 101.2 minutes
Semi major axis: 7192 km
RCS: 0.589 m2 (medium)
Launch date: June 25, 1993
Source: United States (US)
Launch site: AIR FORCE WESTERN TEST RANGE (AFWTR)

This spacecraft was used to help calibrate radar target cross section data.
aabbcc
Your satellite tracking list
Your tracking list is empty




NASA's NSSDC Master Catalog

Two Line Element Set (TLE):
1 22698U 93041A   19263.92264221 +.00000052 +00000-0 +16885-4 0  9992
2 22698 089.5760 192.1553 0087417 315.0522 044.3615 14.23403707362011
Source of the keplerian elements: AFSPC